{"data":{"norad_id":59087,"intl_designator":"2024-041P","name":"STARLINK-31266","alt_names":[],"object_type":"PAYLOAD","status":"ACTIVE","operator":null,"country":"US","launch_date":"2024-02-29","launch_site_code":"AFETR","launch_vehicle":null,"mission":null,"orbit_class":"UNKNOWN","rcs_meters":null,"size_class":null,"mass_kg":null,"dimensions":null,"purposes":["comms"],"wikipedia_slug":null,"has_3d_model":false,"image_url":null,"decayed_at":null,"tle_current":{"epoch":"2026-05-24T17:39:30.735360Z","epoch_age_seconds":108430,"freshness":"FRESH","line1":"1 59087U 24041P   26144.73577240  .00002910  00000+0  11520-3 0  9995","line2":"2 59087  43.0002 241.0796 0001551 266.4500  93.6174 15.27588960125957","mean_motion":15.2758896,"eccentricity":0.0001551,"inclination_deg":43.0002,"raan_deg":241.0796,"arg_perigee_deg":266.45,"mean_anomaly_deg":93.6174,"bstar":0.0001152,"rev_number":12595,"period_min":94.266195796545,"perigee_km":481.95810090518,"apogee_km":484.08643250972,"semimajor_km":6861.1592667074,"source":"CELESTRAK","updated_at":"2026-05-25T13:38:18.830404Z"}}}